sat.trackr.live / text

‹ back to catalog

STARLINK-34303

NORAD 64168 · 2025-112Y

PAYLOAD ACTIVE UNKNOWN

§ Identity

Operator
Country
US
Launch date
2025-05-27
Launch site
AFWTR
Launch vehicle
Mass (kg)
RCS (m²)

Purposes: comms

External: N2YO · Heavens-Above · Gunter

§ Orbital elements

Epoch: 2026-09-19T02:47:09.744864Z

Period
93.91 min
Inclination
97.2840°
Eccentricity
0.0001736
Mean motion
15.33462543 rev/d
Perigee alt
464.3 km
Apogee alt
466.7 km
Semi-major
6,843.6 km
B*
6.6582e-4
RAAN
309.1748°
Arg perigee
93.6415°
Mean anomaly
266.5027°
Rev number
7,253

§ Raw data

STARLINK-343031 64168U 25112Y   26262.11608501  .00021494  00000+0  66582-3 0  99952 64168  97.2840 309.1748 0001736  93.6415 266.5027 15.33462543 72535

JSON: /api/v1/satellites/64168 · /tle

For live sub-satellite position, see the globe view (requires WebGL).

§ Visibility from observer

Set your observer location to see the next 7 days of passes ≥ 10°. The values pass through the URL so the page stays shareable.

No JS? Fill the form by hand. The geolocation button needs JavaScript.